Weather History for Luxor, Egypt

Change the Weather History Date:

Monday, April 8, 2013

  Actual Average Record
Temperature  
Mean Temperature 78 °F -  
Max Temperature 98 °F 93 °F 102 °F (2003)
Min Temperature 58 °F 64 °F 51 °F (1997)
Cooling Degree Days 13    
Growing Degree Days 28 (Base 50)    
Moisture  
Dew Point 41 °F    
Average Humidity 24    
Maximum Humidity 41    
Minimum Humidity 8    
Precipitation  
Precipitation 0.00 in 0.00 in - ()
Sea Level Pressure  
Sea Level Pressure 29.84 in    
Wind  
Wind Speed 3 mph ()    
Max Wind Speed 13 mph    
Max Gust Speed -    
Visibility 3.2 miles    
Events      
Averages and records for this station are not official NWS values.
T = Trace of Precipitation, MM = Missing Value Source: Averaged Metar Reports

Daily Weather History Graph

Daily Weather History Graph

Search for Another Location

Airport:

Trip Planner

Search our weather history database for the weather conditions in past years. The results will help you decide how hot, cold, wet, or windy it might be!

Date:

Astronomy

Apr. 08, 2013 Rise Set
Actual Time 5:33 AM EET 6:09 PM EET
Civil Twilight 5:10 AM EET 6:32 PM EET
Nautical Twilight 4:42 AM EET 6:59 PM EET
Astronomical Twilight 4:15 AM EET 7:27 PM EET
Moon 4:01 AM EET (4/8) 4:29 PM EET (4/8)
Length of Visible Light 13h 22m
Length of Day
12h 35m
Waning Crescent, 4% of the Moon is Illuminated
Apr 8
Waning Crescent
Apr 10
New
Apr 18
First Quarter
Apr 25
Full
May 2
Last Quarter

Hourly Weather History & Observations

Time (EET) Temp. Dew Point Humidity Pressure Visibility Wind Dir Wind Speed Gust Speed Precip Events Conditions
12:00 AM 69.8 °F 30.2 °F 23% 29.80 in - Calm Calm - N/A   Clear
1:00 AM 68.0 °F 30.2 °F 24% 29.80 in - Calm Calm - N/A   Clear
2:00 AM 67 °F 29 °F 14% 29.79 in 6 mi Calm Calm - -  
3:00 AM 66.2 °F 24.8 °F 21% 29.77 in - SE 2.3 mph - N/A   Clear
4:00 AM - - N/A% 29.77 in - Calm Calm - N/A   Clear
5:00 AM 62.6 °F 30.2 °F 30% 29.80 in - Calm Calm - N/A   Clear
6:00 AM 60.8 °F 26.6 °F 27% 29.80 in - South 2.3 mph - N/A   Clear
7:00 AM 66.2 °F 35.6 °F 32% 29.83 in - Calm Calm - N/A   Clear
8:00 AM 72 °F 46 °F 28% 29.86 in 4 mi Calm Calm - -   Haze
8:00 AM 71.6 °F 46.4 °F 41% 29.86 in 3.7 mi Calm Calm - N/A   Unknown
9:00 AM 77.0 °F 41.0 °F 28% 29.86 in 2.5 mi NW 3.5 mph - N/A   Haze
10:00 AM 86.0 °F 44.6 °F 23% 29.86 in 1.2 mi Calm Calm - N/A   Haze
11:00 AM 91.4 °F 44.6 °F 20% 29.86 in 3.7 mi West 4.6 mph - N/A   Unknown
11:28 AM 91.4 °F 44.6 °F 20% - 3.7 mi West 4.6 mph - N/A   Unknown
12:00 PM 91.4 °F 44.6 °F 20% - - West 5.8 mph - N/A   Clear
1:00 PM 96.8 °F 39.2 °F 14% 29.83 in - West 8.1 mph - N/A   Clear
2:00 PM 97 °F 42 °F 8% 29.80 in 6 mi West 6.9 mph - -  
2:00 PM 96.8 °F 41.0 °F 15% 29.80 in - West 6.9 mph - N/A   Clear
3:00 PM 98.6 °F 46.4 °F 17% 29.80 in - NW 6.9 mph - N/A   Clear
4:00 PM 95.0 °F 48.2 °F 20% 29.80 in 3.7 mi NW 11.5 mph - N/A   Unknown
5:00 PM 91.4 °F 50.0 °F 24% 29.80 in 3.7 mi WNW 12.7 mph - N/A   Unknown
6:00 PM 87.8 °F 48.2 °F 25% 29.83 in 2.5 mi WNW 9.2 mph - N/A   Unknown
7:00 PM 84.2 °F 48.2 °F 29% 29.86 in 2.5 mi NW 9.2 mph - N/A   Unknown
8:00 PM 81 °F 47 °F 20% 29.89 in 2 mi WNW 5.8 mph - -   Widespread Dust
8:00 PM 80.6 °F 46.4 °F 30% 29.89 in 2.5 mi WNW 5.8 mph - N/A   Unknown
9:00 PM 80.6 °F 44.6 °F 28% 29.92 in 2.5 mi Calm Calm - N/A   Unknown
10:00 PM 78.8 °F 46.4 °F 32% 29.95 in 2.5 mi WNW 5.8 mph - N/A   Unknown
11:00 PM 77.0 °F 42.8 °F 29% 29.95 in 2.5 mi NW 4.6 mph - N/A   Unknown